Voltar ao catálogo

FENGYUN 1C DEB

LostPO
NORAD 35230·DEBRIS·🇨🇳 China

Lançado May 10, 1999 de Taiyuan Satellite Launch Center

Loading…

Próximas Passagens (próximas 24 horas)

TLE

ObsoletoSource: Space-Track

Época: May 17, 2025, 21:30 UTC

1 35230U 99025DQN 25137.89611848  .00058123  00000-0  64809-2 0  9999
2 35230  98.4143 299.7539 0022570  52.4327 307.8933 14.86589396864030

Acompanhe FENGYUN 1C DEB em tempo real com AllMySat

Download on the App Store